This is the latest recevied weather packets stored in our database for station/object K8BCO. If no packets are shown the sender has not sent any weather packets the latest 10 day(s).
| Time | Temp. | Humidity | Pressure | Rain* | Wind** | Luminosity | Snow |
|---|---|---|---|---|---|---|---|
| 1778026518 | 3.89° C | 54% | 1008.8 hPa | 0 mm | - | 41 W/m² | - |
| 1778025919 | 3.89° C | 53% | 1008.7 hPa | 0 mm | - | 49 W/m² | - |
| 1778025319 | 4.44° C | 54% | 1008.7 hPa | 0 mm | - | 61 W/m² | - |
| 1778024722 | 4.44° C | 52% | 1008.6 hPa | 0 mm | - | 76 W/m² | - |
| 1778024118 | 5° C | 52% | 1008.6 hPa | 0 mm | - | 128 W/m² | - |
| 1778023520 | 5° C | 51% | 1008.5 hPa | 0 mm | - | 116 W/m² | - |
| 1778022922 | 5° C | 51% | 1008.5 hPa | 0 mm | - | 158 W/m² | - |
| 1778022316 | 5° C | 50% | 1008.5 hPa | 0 mm | - | 195 W/m² | - |
| 1778021716 | 5° C | 52% | 1008.5 hPa | 0 mm | - | 172 W/m² | - |
| 1778021116 | 5° C | 51% | 1008.5 hPa | 0 mm | - | 145 W/m² | - |
| 1778020516 | 5° C | 51% | 1008.4 hPa | 0 mm | - | 219 W/m² | - |
| 1778019917 | 5° C | 51% | 1008.4 hPa | 0 mm | - | 197 W/m² | - |
| 1778019317 | 5° C | 50% | 1008.2 hPa | 0 mm | - | 300 W/m² | - |
| 1778018717 | 5° C | 50% | 1008.2 hPa | 0 mm | - | 289 W/m² | - |
| 1778018117 | 5° C | 49% | 1008.1 hPa | 0 mm | - | 255 W/m² | - |
| 1778017517 | 5° C | 50% | 1007.8 hPa | 0 mm | - | 328 W/m² | - |
| 1778016918 | 5° C | 51% | 1007.9 hPa | 0 mm | - | 308 W/m² | - |
| 1778016317 | 5.56° C | 51% | 1007.8 hPa | 0 mm | - | 294 W/m² | - |
| 1778015718 | 5.56° C | 52% | 1007.8 hPa | 0 mm | - | 276 W/m² | - |
| 1778015118 | 5.56° C | 52% | 1007.7 hPa | 0 mm | - | 374 W/m² | - |
| 1778014518 | 5.56° C | 53% | 1007.5 hPa | 0 mm | - | 333 W/m² | - |
| 1778013919 | 5.56° C | 53% | 1007.5 hPa | 0 mm | - | 232 W/m² | - |
| 1778013319 | 6.11° C | 51% | 1007.2 hPa | 0 mm | - | 298 W/m² | - |
| 1778012718 | 6.11° C | 50% | 1007.1 hPa | 0 mm | - | 401 W/m² | - |
| 1778012116 | 6.11° C | 50% | 1007.1 hPa | 0 mm | - | 347 W/m² | - |
* Rain latest hour (hover to see other rain measurements)
** Current wind speed in m/s (hover to see current wind gust speed)